STARLINK-5802, 56552

Orbit data source: Space-Track

STARLINK-5802, 56552 is a payload satellite owned by SpaceX/Seattle (US) in LEO that was launched on Sun, 14 May 2023 UTC via an FALCON 9 launch vehicle from the Air Force Eastern Test Range (AFETR). Payload-class satellites include a variety of spacecraft equipped with specific instruments for various scientific and technological missions. These include communications satellites like Starlink; space stations such as the ISS; scientific satellites like the Hubble; Earth observation satellites from companies like Planet Labs, Umbra, and HawkEye 360; GPS; miniature CubeSats for education and research; and military/defense satellites.

Loading next visibility...
Identifier
56552, 2023-065BB
Orbit
LEO
Country
Flag of USUS
Related business
Manufacturer
SpaceX/Seattle
Mission
Operational Commercial Communications
Bus & Motor
STARLINK, Unknown motor
Mass
305 kg wet, ~290 kg dry
Launch date (UTC)
2023-05-14 (3 years ago)
Launch vehicle
FALCON 9
Launch site
Air Force Eastern Test Range (AFETR)
Object type
Payload
Rocket body
Debris
Shape & HBR
Box + 1 Pan, 10.1 m
Radar Cross Section
11.087 m², Large (>1 m²)

Expand to show TLE details & history
Last TLE update: 2 days ago

TLE from 2 days ago
0 STARLINK-5802
1 56552U 23065BB  26170.97696330  .00000693  00000-0  34701-4 0  9995
2 56552  43.0039   6.0852 0001163 274.6868  85.3851 15.27572064172118
Epoch: 2026-06-19T23:26Z
TLE epoch observation values (Epoch: 2026-06-19T23:26:49.629Z)
Latitude
0.00001°
Longitude
106.18021°
Altitude
482.785 km
Speed
7.626 km/s
True Right ascension
00h 24m 20s
True Declination
0° 00' 00"
Sunlit
Object was in daylight at epoch
Visualization orbit readout
Latitude
Unknown
Longitude
Unknown
Altitude
Unknown
Speed
Unknown
Apparent Right ascension
Unknown
Apparent Declination
Unknown
Sunlit
N/A
Visualization observer readout
Local Sidereal Time
21:24:22
Azimuth
Unknown
Elevation
Unknown
Doppler factor
Unknown
Orbital elements
Apogee altitude
485.816 km
Perigee altitude
484.219 km
Semi-major axis
6,863.154 km
Eccentricity
0.00012
Inclination
43.0039°
RAAN
6.0852°
Arg. of periapsis
274.6868°
True anomaly
85.39838°
Mean anomaly
85.3851°
Eccentric anomaly
85.39174°
Mean motion
3.81731 °/min
Orbital period
94.31 mins
BSTAR
0.000034701
Loading maneuver chart data...
Computing Atmospheric mass density...
Loading historical data...
Loading historical data...
Loading historical data...
Loading historical data...
Loading historical data...
Loading historical data...
Loading historical data...

Documentation

Showing up to 5 results
|